Regional Weather Roundup
Issued by NWS

Home | Current Version | Previous Version | Graphics & Text | Print | Product List | Glossary On
Versions: 1 2 3 4 5 6 7 8 9 10 11 12 13 14 15 16 17 18 19 20 21 22 23 24 25 26 27 28 29 30 31 32 33 34 35 36 37 38 39 40 41 42 43 44 45 46 47 48 49 50
000
ASUS43 KMPX 291110
RWRMN
WEATHER ROUNDUP FOR MINNESOTA
NATIONAL WEATHER SERVICE TWIN CITIES/CHANHASSEN MN
600 AM CDT FRI APR 29 2016


NOTE: "FAIR" INDICATES FEW OR NO CLOUDS BELOW 12,000 FEET WITH NO
SIGNIFICANT WEATHER AND/OR OBSTRUCTIONS TO VISIBILITY. N/A MEANS
CURRENT SKY AND/OR WEATHER CONDITIONS ARE NOT AVAILABLE.

MNZ060>063-068>070-291200-
   Twin Cities Metro

CITY           SKY/WX    TMP DP  RH WIND       PRES   REMARKS
TWIN CITIES    CLOUDY    36  34  92 CALM      30.16F FOG
ST PAUL        FOG       36  33  89 CALM      30.17S VSB 1/2
CRYSTAL        CLOUDY    35  33  92 CALM      30.14F FOG
BLAINE         CLOUDY    37  37 100 CALM      30.15S FOG
EDEN PRAIRIE   FOG       35  33  92 SW5       30.16S VSB 1/2 WCI  31
SOUTH ST PAUL  CLOUDY    35  34  98 CALM      30.16S FOG
LAKE ELMO      FOG       34  34 100 CALM      30.16S VSB 1/2
$$
MNZ001>005-007-008-013>017-022>024-027-028-291200-
   Northwest Minnesota

CITY           SKY/WX    TMP DP  RH WIND       PRES   REMARKS
BEMIDJI        PTCLDY    31  27  83 CALM      30.16S
HALLOCK        CLOUDY    36  27  69 NE8       30.22S
ROSEAU         CLEAR     32  28  86 CALM      30.23R
WARROAD        CLEAR     36  30  80 N5        30.23R
THIEF RVR FALL PTCLDY    39  27  60 NE8       30.20S
CROOKSTON      CLOUDY    37  28  70 E8        30.19S
FOSSTON        PTCLDY    36  28  75 NE5       30.18R
DETROIT LAKES  CLOUDY    37  36  93 CALM      30.16F
MOORHEAD       CLOUDY    37  34  87 SE5       30.16S
PARK RAPIDS    CLOUDY    32  28  85 CALM      30.15S
MAHNOMEN       FAIR      33  30  87 NE3       30.16S
$$
MNZ006-009>011-018-025>026-291200-
   North Central Minnesota

CITY           SKY/WX    TMP DP  RH WIND       PRES   REMARKS
BAUDETTE       CLEAR     36  28  73 NE6       30.21R
FLAG ISLAND    CLEAR     37  32  81 NE7       30.23R
INTL FALLS     CLEAR     35  30  82 N7        30.20R WCI  29
WASKISH        CLOUDY    34  28  80 NE6       30.19S WCI  29
BIG FORK       CLOUDY    28  27  93 CALM      30.18R
LONGVILLE      PTCLDY    28  27  93 CALM      30.16S
GRAND RAPIDS   CLOUDY    28  21  74 CALM      30.18S
CRANE LAKE     PTCLDY    27  25  93 CALM      30.21R
ORR            PTCLDY    30  25  80 CALM      30.16R
COOK           PTCLDY    27  25  93 CALM      30.18S
WALKER         FAIR      31  25  79 CALM      30.15F
$$
MNZ012-019>021-037-291200-
   Northeast Minnesota

CITY           SKY/WX    TMP DP  RH WIND       PRES   REMARKS
DULUTH         CLOUDY    31  25  78 N6        30.16R WCI  25
ELY            CLOUDY    34  30  86 CALM      30.18R
HIBBING        CLOUDY    24  23  96 CALM      30.17R
EVELETH        CLOUDY    30  30 100 CALM      30.18S
DULUTH HARBOR  CLEAR     32  30  93 S3        30.19S
TWO HARBORS    CLEAR     30  25  80 CALM      30.16R
SILVER BAY     CLEAR     28  25  86 CALM      30.16R
GRAND MARAIS     N/A     37  27  67 N7        30.18R
G MARAIS ARPRT CLEAR     27  21  80 N7        30.16R WCI  19
$$
MNZ029>031-032-039>041-046>048-054>057-064-291200-
   West Central Minnesota

CITY           SKY/WX    TMP DP  RH WIND       PRES   REMARKS
FERGUS FALLS   PTCLDY    36  36 100 S3        30.16S FOG
WHEATON        CLEAR     39  37  93 SW5       30.20R
MORRIS         CLOUDY    36  34  93 W3        30.17R FOG
ALEXANDRIA     CLOUDY    34  33  96 N6        30.15S FOG     WCI  29
ELBOW LAKE     FAIR      35  35 100 SW7       30.17S WCI  29
WADENA           N/A     32  32 100 CALM      30.15S FOG
GLENWOOD       CLOUDY    34  34 100 SW7       30.17R WCI  28
APPLETON       CLOUDY    37  36  93 CALM      30.18R
BENSON         CLOUDY    37  36  93 CALM      30.18R
ORTONVILLE     MOCLDY    36  34  93 N3        30.18R FOG
MADISON        FOG       36  34  93 N3        30.18R VSB 1/2
WILLMAR        CLOUDY    39  39 100 NW3       30.19R
$$
MNZ033>034-036-042>043-049>051-058-059-291200-
   Central Minnesota

CITY           SKY/WX    TMP DP  RH WIND       PRES   REMARKS
ST CLOUD       FOG       32  32 100 CALM      30.15S VSB 1/2
SAUK CENTRE    FOG       30  30 100 CALM      30.16R VSB 1/2
PAYNESVILLE    CLOUDY    34  34 100 SW5       30.17R FOG     WCI  30
AITKIN         CLOUDY    28  27  93 CALM      30.15F
PINE RIVER     PTCLDY    28  25  86 CALM      30.19F
BRAINERD       CLOUDY    31  26  82 CALM      30.16F
STAPLES        CLOUDY    30  30 100 CALM      30.16S
LONG PRAIRIE   FAIR      34  32  93 CALM      30.15S
LITTLE FALLS   CLOUDY    34  32  93 CALM      30.16S
LITCHFIELD     CLOUDY    37  37 100 CALM      30.17R FOG
BUFFALO        CLOUDY    36  34  95 CALM      30.17S FOG
MAPLE LAKE     FOG       36  36  99 CALM      30.17S VSB 1/4
HUTCHINSON     FOG       34  34 100 CALM      30.18R VSB 1/2
$$
MNZ037-044-045-052-053-291200-
   East Central Minnesota

CITY           SKY/WX    TMP DP  RH WIND       PRES   REMARKS
PRINCETON      FOG       30  30 100 CALM      30.16S VSB 3/4
MORA           CLOUDY    32  28  86 CALM      30.18S
CAMBRIDGE      CLOUDY    34  28  80 CALM      30.14S
RUSH CITY      CLOUDY    31  28  90 CALM      30.17S
MOOSE LAKE     CLOUDY    30  28  93 CALM      30.16R
HINCKLEY       FAIR      32  30  93 CALM      30.17S
CLOQUET        CLOUDY    30  25  80 NW3       30.16S
MCGREGOR       CLOUDY    32  30  93 CALM      30.17S
$$
MNZ071>073-080-081-089-090-097-098-291200-
   Southwest Minnesota

CITY           SKY/WX    TMP DP  RH WIND       PRES   REMARKS
MONTEVIDEO     MOCLDY    37  37 100 NE3       30.19R
GRANITE FALLS  CLOUDY    40  39  97 CALM      30.19R
CANBY          CLOUDY    40  40  98 CALM      30.18S FOG
MARSHALL       MOCLDY    35  34  96 NW3       30.18R
REDWOOD FALLS  CLOUDY    37  35  92 CALM      30.17R
OLIVIA         PTCLDY    36  34  93 N8        30.16R
PIPESTONE      CLOUDY    37  36  93 CALM      30.13R
WINDOM         CLOUDY    37  36  93 CALM      30.15R
WORTHINGTON    CLOUDY    38  36  92 NE9       30.14R
JACKSON        CLOUDY    37  36  93 N7        30.14F FOG
TRACY          CLOUDY    37  37  99 CALM      30.16R FOG
SLAYTON        CLOUDY    37  37 100 NE5       30.14S
$$
MNZ065>067-074>077-082>085-091>093-291200-
   South Central Minnesota

CITY           SKY/WX    TMP DP  RH WIND       PRES   REMARKS
MANKATO        CLOUDY    37  34  87 NE7       30.15S
NEW ULM        CLOUDY    37  36  93 CALM      30.16R
ST JAMES       CLOUDY    34  32  93 CALM      30.17R
FAIRMONT       CLOUDY    39  30  70 NE7       30.14R
GLENCOE        CLOUDY    37  37 100 CALM      30.16S FOG
FARIBAULT      CLEAR     34  34 100 CALM      30.16S
OWATONNA       CLEAR     36  34  93 CALM      30.14F FOG
WASECA         CLOUDY    36  34  93 N3        30.16S
ALBERT LEA     CLOUDY    37  37 100 NE1       30.13S
$$
MNZ078>079-086>088-094>096-291200-
   Southeast Minnesota

CITY           SKY/WX    TMP DP  RH WIND       PRES   REMARKS
ROCHESTER      CLOUDY    37  36  96 N8        30.14R
RED WING       MOCLDY    36  34  93 CALM      30.16R
STANTON        CLOUDY    37  35  92 CALM      30.16S
DODGE CENTER   CLOUDY    36  36 100 N5        30.13F
WINONA         CLOUDY    39  36  87 CALM      30.16R
AUSTIN         PTCLDY    36  34  93 CALM      30.13S
PRESTON        CLOUDY    35  34  95 CALM      30.14S FOG
$$
ABBREVIATIONS USED IN REMARKS
   TC - TEMPERATURES IN CELSIUS
  WCI - WIND CHILL INDEX
   HX - HEAT INDEX
  VSB - VISIBILITY
$$



USA.gov is the U.S. government's official web portal to all federal, state and local government web resources and services.